RH
5 5 5 5 5 5 5 5 6 6 6 6 6 6 7 6 6 6 6 6 6 6 6 6 6 7 6 6 7 7 7 7 7 7 7 7 7 7 7 7 7 7 7 7 7 7 8 8 8 8 8 9 9 9 10 10 10 11 10 10 11 11 11 12 14 20 30 37 41 42 42 41 42 43 43 44 44 46 48 49 48 47 45 41 36
5 5 5 4 4 4 4 4 4 4 4 5 5 5 5 6 6 6 6 6 6 6 6 6 6 6 6 6 6 6 6 6 6 6 6 6 6 6 7 6 7 7 7 7 7 7 7 7 7 7 7 7 7 7 8 8 8 9 9 9 9 10 9 10 10 11 16 23 31 37 40 41 41 41 41 42 42 42 44 47 48 47 46 45 43
5 5 5 5 5 4 4 4 4 4 4 4 4 4 4 4 5 5 5 5 5 5 5 5 5 5 5 6 6 6 6 6 6 6 6 6 6 6 6 6 6 6 6 6 6 6 6 6 6 6 6 6 6 6 6 7 7 7 7 7 7 8 8 8 9 9 10 12 16 22 29 35 39 41 41 40 40 41 42 43 45 46 46 45 46
5 5 5 4 5 4 4 4 4 4 4 4 4 4 4 4 4 4 5 5 5 5 5 5 5 5 5 5 5 5 5 5 5 5 5 5 5 5 5 5 5 5 5 5 6 6 6 6 6 6 6 6 6 6 6 6 6 6 6 6 6 6 6 6 7 7 8 9 11 13 16 21 28 34 38 39 40 40 40 40 42 43 44 45 45
5 4 4 4 4 4 4 4 5 4 4 4 4 4 4 4 4 4 4 4 4 4 5 5 5 5 5 5 5 5 4 5 5 4 5 4 4 4 4 4 5 4 5 5 5 5 5 5 5 5 5 6 6 6 6 5 5 5 5 5 5 5 5 5 5 6 6 7 9 10 11 12 15 20 26 32 36 38 39 38 39 40 41 42 43
4 4 4 4 4 4 4 4 4 4 4 4 4 4 4 4 4 4 4 4 4 4 4 4 5 5 5 5 5 5 5 5 4 4 4 4 4 4 4 4 4 4 4 4 4 4 5 5 5 5 5 5 5 5 5 5 5 5 5 5 5 5 5 5 5 4 5 5 6 8 9 10 11 12 15 19 24 30 35 37 38 38 38 39 40
4 4 4 4 4 4 4 4 4 4 4 4 4 4 4 4 4 4 4 4 4 4 4 4 4 4 4 4 4 5 5 5 5 5 4 4 4 4 4 4 4 4 4 4 4 4 4 4 4 5 5 5 5 5 5 5 5 5 5 5 4 4 4 4 4 4 4 5 5 6 7 8 9 11 11 12 14 17 23 30 35 37 38 38 38
4 4 4 4 4 3 4 4 3 4 4 4 4 4 4 4 4 4 4 4 4 4 4 4 4 3 4 4 4 4 4 4 4 4 4 4 4 4 4 4 4 4 4 4 4 4 4 4 4 4 4 4 4 4 4 4 5 4 4 4 4 4 4 4 4 4 4 4 4 4 5 6 7 8 10 10 11 12 14 17 23 29 34 36 36
4 4 4 4 4 4 4 4 4 4 4 4 4 4 4 4 4 4 4 4 4 4 4 4 4 4 3 4 4 3 4 4 4 4 4 4 4 4 4 4 4 4 4 4 4 4 4 4 4 4 4 4 3 4 4 4 4 4 4 4 4 4 4 4 4 4 4 3 4 4 4 5 5 6 7 8 9 11 11 11 13 17 23 28 32
4 4 4 4 4 4 4 4 4 4 4 4 4 4 4 4 4 4 4 4 4 4 4 4 4 4 4 4 4 4 4 4 3 3 3 3 3 3 3 3 3 4 4 4 4 4 4 4 4 4 4 4 4 3 3 3 3 3 4 4 4 4 4 4 4 4 4 3 3 4 3 4 4 4 5 6 7 8 9 10 11 11 13 17 22
4 4 4 4 4 4 4 4 5 4 4 4 4 4 4 4 4 4 4 4 4 4 4 4 4 4 4 4 4 4 4 4 3 3 3 3 3 3 3 3 3 3 4 4 4 4 4 4 4 4 4 4 4 4 4 3 3 3 3 3 3 3 3 4 3 3 4 3 3 3 3 3 4 4 4 5 6 6 7 8 9 10 11 11 13
5 4 4 5 4 4 5 4 4 4 4 4 4 4 4 4 4 4 4 4 4 4 4 4 4 4 4 4 4 4 4 4 3 3 3 3 3 3 3 3 4 4 4 4 4 4 4 4 4 4 4 4 4 4 4 4 3 3 3 3 3 3 3 3 3 3 3 3 3 3 3 3 3 4 4 4 5 5 5 6 7 8 9 9 10
5 5 5 5 5 5 5 4 4 4 4 4 4 4 4 4 4 4 4 4 4 4 3 3 3 3 3 3 3 3 3 3 3 3 3 3 3 3 3 3 4 4 4 4 4 4 4 4 4 4 4 3 3 3 3 3 3 3 3 3 3 3 3 2 3 3 3 3 3 3 3 3 3 3 3 4 4 4 5 5 6 6 7 8 9
5 5 5 5 5 4 4 4 4 4 4 4 4 4 3 4 4 4 4 4 3 3 3 3 3 3 3 3 3 3 3 3 3 3 2 2 2 2 3 3 3 4 4 4 4 4 4 4 4 4 4 3 3 3 3 3 3 3 3 3 3 3 3 2 2 2 2 2 3 3 3 3 3 4 3 3 3 4 4 4 5 5 6 6 7
5 5 5 4 4 4 4 4 4 4 4 4 4 4 4 4 4 4 4 4 4 4 4 3 4 3 3 3 3 3 3 3 2 3 2 2 2 2 2 3 3 3 3 3 3 4 4 4 4 4 3 4 3 3 3 3 3 3 2 3 3 2 2 2 2 2 2 2 2 2 3 3 3 4 4 3 3 3 3 4 4 4 5 5 6
4 4 4 4 4 4 4 4 4 4 4 4 4 4 4 4 4 4 4 4 4 4 4 4 4 3 3 3 3 3 3 3 2 2 3 2 2 3 3 3 3 3 3 3 3 3 3 3 3 3 3 4 3 3 3 3 2 3 2 2 2 2 2 2 2 2 2 2 2 2 2 3 3 4 4 4 3 3 3 3 4 4 4 5 5
4 4 4 4 4 4 4 4 4 4 4 4 4 4 4 4 4 4 4 4 4 4 4 4 3 3 3 3 3 3 3 3 3 2 3 3 2 3 3 3 3 3 3 3 3 3 3 3 3 3 3 3 3 3 3 2 2 2 2 2 2 2 2 2 2 2 2 2 2 2 2 3 3 3 3 4 4 3 3 3 3 3 4 4 5
4 4 4 4 4 4 4 4 4 4 4 4 4 4 4 4 4 4 4 4 4 4 4 4 3 3 3 3 3 3 3 3 3 3 3 3 3 3 3 3 3 3 3 3 3 3 3 3 3 3 3 3 3 3 2 2 2 2 2 2 2 2 2 2 2 2 2 2 2 2 2 2 3 3 3 3 3 3 3 3 3 4 3 3 4
4 4 4 4 4 4 4 4 4 4 4 4 4 4 4 4 4 4 4 4 4 4 4 4 4 3 3 3 3 3 3 3 3 3 3 3 3 3 3 3 3 3 3 3 3 3 3 3 3 3 3 3 3 3 2 2 2 2 2 2 2 2 2 3 3 2 2 2 2 2 2 3 3 3 3 3 3 3 3 3 3 4 4 3 3
4 4 4 4 4 4 5 4 4 4 4 4 4 4 4 4 4 4 4 4 4 4 4 4 4 3 3 3 3 3 3 3 3 3 3 3 3 3 3 3 3 3 3 3 3 3 3 3 3 3 3 3 3 2 2 2 2 2 2 2 2 3 3 3 3 3 2 3 3 2 3 3 2 2 3 3 3 2 2 3 3 3 4 3 4
4 4 4 5 5 4 5 4 4 4 4 4 4 4 4 5 4 4 5 5 4 4 4 4 4 3 3 3 3 3 3 3 3 3 3 3 3 3 3 3 3 3 4 3 3 3 3 3 3 3 3 3 3 3 2 2 2 2 2 3 3 3 3 3 3 3 3 3 2 2 2 2 2 2 2 2 3 3 2 2 2 3 3 3 3
4 4 5 5 5 4 4 4 4 4 4 4 4 4 4 5 5 5 5 5 5 4 4 4 4 3 3 3 3 3 3 3 3 3 3 3 3 3 3 3 3 4 4 3 3 3 3 3 3 3 3 2 3 3 3 2 2 2 2 3 2 2 2 2 3 3 3 2 2 2 2 2 2 2 2 3 3 2 2 3 2 2 3 3 3
4 5 5 4 4 4 4 4 4 4 4 4 4 4 5 4 5 5 5 5 5 4 4 4 4 3 3 3 3 3 3 3 3 3 3 3 3 3 3 3 3 4 4 3 3 3 3 3 3 2 2 3 2 3 3 3 2 2 2 2 2 2 2 2 3 3 3 3 3 2 2 2 2 2 3 3 3 3 2 2 2 2 2 2 2
5 5 5 4 4 4 4 4 4 4 4 4 4 4 5 4 5 5 5 5 5 5 4 4 4 3 3 3 3 3 3 3 3 3 3 3 3 3 3 3 3 3 4 3 3 3 3 3 3 3 2 3 3 2 3 3 2 2 2 2 2 2 2 2 3 3 3 3 3 3 3 3 2 2 2 2 3 3 3 2 2 2 3 3 3
5 5 5 5 4 4 4 4 4 4 4 4 4 4 4 5 4 5 5 5 5 5 5 4 4 3 3 3 3 3 3 3 3 3 4 4 3 3 3 3 3 3 3 3 3 3 3 2 3 3 3 3 3 3 2 2 2 2 2 2 3 2 3 2 2 3 3 3 3 3 3 3 2 2 2 2 3 3 3 3 3 2 2 3 2
5 5 5 4 4 4 4 4 4 4 4 4 4 4 4 5 5 5 5 5 5 5 5 4 4 3 3 3 3 3 3 3 3 3 4 4 4 4 3 3 3 3 3 3 3 3 3 3 3 3 3 3 3 3 3 3 3 3 3 3 3 3 3 3 3 3 3 3 3 3 2 2 2 2 2 2 2 3 3 3 3 3 3 3 3
5 5 4 5 4 4 5 5 4 4 4 4 4 4 4 4 4 5 5 5 5 5 4 4 4 4 3 3 3 3 3 3 3 4 4 4 4 4 3 3 3 3 3 3 3 3 3 3 3 3 3 3 3 3 3 3 3 3 3 3 3 3 3 3 3 3 3 3 3 3 2 2 2 3 3 3 2 3 3 2 3 3 3 2 3
5 5 5 5 5 5 5 5 5 5 5 5 4 4 4 4 4 4 4 4 5 5 5 4 4 4 4 3 3 3 3 3 4 4 4 4 4 4 4 3 3 3 3 3 3 3 3 3 3 3 3 3 3 3 3 3 3 3 3 3 3 3 3 3 3 3 3 3 3 2 2 2 2 3 3 3 3 2 3 3 2 3 3 2 3
5 5 5 5 5 5 5 5 5 5 5 5 4 4 4 4 4 4 4 4 4 5 5 5 4 4 4 3 3 3 3 3 3 4 4 5 4 4 4 4 3 3 3 3 3 3 3 3 3 3 3 3 3 3 3 3 3 3 3 3 3 3 3 3 3 3 3 3 3 3 2 2 2 3 2 3 3 2 3 3 2 2 3 3 3
5 5 5 5 5 5 5 5 5 5 5 5 5 4 4 4 4 4 4 4 4 5 5 5 5 5 5 4 3 3 3 3 3 3 4 4 4 4 4 4 3 3 3 3 3 3 3 3 3 3 3 3 3 3 3 3 3 3 3 3 3 3 3 3 3 3 3 3 3 2 3 2 2 3 3 2 3 3 2 3 3 2 3 3 3
5 5 5 5 5 5 5 5 5 5 5 5 5 5 4 4 4 4 4 4 4 4 4 5 5 5 6 6 5 4 3 3 3 3 4 4 4 4 4 4 4 3 3 3 3 3 3 3 3 3 3 3 3 3 3 3 3 3 3 3 3 3 3 3 3 3 3 3 3 2 3 3 2 3 3 2 3 3 3 3 3 3 3 3 3
5 5 5 5 5 5 5 5 5 5 5 5 5 5 5 5 4 4 3 3 4 4 4 4 5 5 5 6 5 5 3 3 3 3 3 4 4 4 4 4 4 3 3 3 3 3 3 3 3 3 3 3 3 3 3 3 3 3 3 3 3 3 3 3 4 3 3 3 3 3 3 3 3 3 3 3 3 3 3 3 3 3 3 3 3
6 6 5 5 5 5 5 5 5 5 5 5 5 5 5 5 5 4 4 3 3 3 4 4 4 4 5 5 5 5 4 4 3 3 3 3 4 4 4 4 4 4 3 3 3 3 3 4 4 3 3 3 3 3 3 3 3 3 3 3 3 3 4 4 3 4 3 3 3 3 3 3 3 3 3 3 3 3 3 3 3 3 3 3 3
6 5 5 5 5 5 5 6 5 5 5 5 5 5 5 5 5 5 5 4 4 4 3 4 4 4 5 5 5 5 4 4 4 4 3 3 3 4 4 4 4 4 4 3 3 3 4 4 4 4 4 3 3 3 3 3 3 3 3 3 3 3 4 4 4 4 4 3 3 3 3 3 3 3 3 3 3 3 3 3 3 3 3 3 3
6 5 5 5 5 5 5 6 6 6 6 5 5 5 5 5 5 5 5 5 5 4 4 4 4 4 4 5 5 5 4 4 4 4 4 4 4 4 4 4 4 4 4 4 4 3 4 4 4 4 4 4 3 3 3 3 3 3 3 3 3 3 4 4 4 4 4 3 3 3 3 3 3 3 3 3 3 3 3 3 3 3 3 3 3
5 5 5 5 5 6 6 6 6 6 6 6 6 6 6 6 5 5 5 5 5 5 4 4 4 4 4 4 5 5 5 4 4 4 4 4 4 4 4 4 4 4 4 4 4 4 4 4 4 4 4 4 4 3 3 3 3 3 3 3 4 4 4 4 4 4 4 3 3 3 3 3 3 3 3 3 3 3 3 3 3 3 3 3 3
6 6 6 6 5 6 6 6 6 6 6 6 6 6 6 6 6 6 6 5 5 5 5 4 4 4 4 4 4 5 5 5 4 4 4 4 4 4 4 4 4 4 4 4 4 4 4 4 4 4 4 4 4 3 4 4 3 3 3 3 4 4 4 4 4 4 4 3 3 3 4 4 4 4 3 3 3 3 3 3 3 3 3 3 3
6 6 6 6 6 6 6 6 6 7 7 7 7 6 6 6 6 6 6 6 5 5 5 5 5 5 5 4 4 5 5 5 5 4 4 4 4 4 4 4 4 4 5 4 4 4 4 4 4 4 4 4 4 4 4 4 4 4 4 4 4 4 4 4 4 4 4 3 3 4 4 4 4 4 3 3 4 3 3 4 4 4 4 4 4
6 6 6 6 6 6 7 7 7 7 7 7 7 7 7 6 6 6 6 6 6 5 5 5 5 5 5 5 4 4 5 5 5 5 4 4 4 4 4 5 4 4 5 5 4 4 4 4 4 4 4 4 4 4 4 4 4 4 4 4 4 4 4 4 4 4 4 4 4 4 4 4 4 4 4 4 3 4 4 4 4 4 4 4 4
6 6 6 6 7 7 7 7 7 7 8 8 7 7 7 6 6 6 6 6 5 5 5 5 5 5 5 5 5 4 4 4 5 5 5 4 4 4 4 5 5 4 4 5 5 4 4 4 4 4 4 4 4 4 4 4 4 4 4 4 4 5 5 4 4 4 4 4 4 4 4 4 4 4 4 4 4 4 4 4 4 5 5 5 5
6 6 6 6 7 7 7 8 8 7 7 8 7 7 7 7 6 6 6 5 5 5 5 5 4 5 5 5 5 5 5 4 4 5 5 5 5 5 5 5 5 4 4 4 5 5 4 4 4 4 4 4 4 4 4 4 4 4 4 4 5 5 5 5 4 4 4 4 4 4 4 4 4 4 4 4 4 4 4 4 5 5 5 5 5
6 6 7 7 7 8 8 8 8 8 7 7 7 7 7 6 6 6 5 5 5 5 5 5 5 5 5 5 5 5 5 5 5 5 5 5 5 5 5 5 5 5 4 4 5 5 4 4 4 4 4 4 4 4 4 4 4 4 4 5 5 5 5 4 4 4 4 4 4 4 4 4 4 4 4 4 4 4 4 5 5 5 5 6 5
6 7 7 7 7 8 8 8 8 8 8 7 7 7 7 7 6 6 6 5 5 5 5 5 5 5 5 5 5 5 5 5 5 5 5 5 5 5 5 5 5 5 4 4 4 5 5 4 4 4 4 4 4 4 4 4 4 4 4 5 5 5 5 4 4 4 4 4 4 4 4 4 4 4 4 4 4 5 5 5 5 6 6 6 5
7 7 7 8 8 8 9 9 9 8 8 8 7 7 7 7 6 6 6 5 5 5 5 5 5 5 5 5 5 5 5 5 5 5 5 5 5 5 5 5 5 5 4 4 5 5 5 5 4 4 4 4 4 4 4 4 4 4 4 5 5 5 5 4 4 4 4 4 4 4 4 4 4 4 4 4 5 5 5 5 6 6 6 6 6
7 7 8 8 8 9 9 9 9 8 8 8 8 7 7 7 7 7 6 6 5 5 5 5 5 5 5 5 5 5 5 5 5 5 5 5 5 5 5 5 5 5 4 4 5 5 5 5 4 4 4 4 4 4 4 4 4 4 5 5 5 5 5 4 4 4 4 4 4 4 4 4 4 5 5 5 5 5 6 6 6 6 6 6 6
7 8 8 8 9 9 9 9 9 9 9 8 8 8 8 8 7 7 7 6 6 5 5 5 5 5 5 5 5 5 5 5 5 5 5 5 5 5 5 5 5 5 5 5 5 4 5 5 4 4 4 4 4 4 4 4 5 5 5 5 5 5 5 4 4 4 4 4 5 5 4 5 5 5 5 5 6 6 6 6 6 6 7 7 7
7 8 9 9 9 9 10 9 9 9 9 8 8 8 8 8 7 7 7 7 6 6 5 5 5 5 5 5 5 5 5 5 5 5 5 5 5 5 5 5 5 5 5 5 4 4 5 5 4 4 4 4 4 4 4 5 5 5 5 6 5 5 5 4 4 5 5 5 5 5 5 5 5 5 5 6 6 6 6 7 7 7 7 7 7
8 9 9 10 10 10 10 10 9 9 9 8 8 8 8 8 7 7 7 7 7 6 5 5 5 5 5 5 5 5 5 5 5 5 5 5 5 5 5 5 5 5 5 5 5 5 5 4 4 4 4 4 4 4 4 5 5 5 6 6 5 5 5 5 4 5 5 5 5 5 5 5 6 6 6 6 6 6 7 7 7 7 7 8 8
8 9 10 10 10 10 10 10 10 9 9 8 8 8 8 7 7 7 7 7 7 7 6 5 5 5 5 5 5 5 5 5 5 5 5 5 5 5 5 5 5 5 5 5 5 5 4 4 4 4 4 4 4 4 4 5 5 6 6 6 5 5 5 5 5 5 5 5 5 5 5 6 6 6 6 7 7 7 7 7 7 8 8 8 8
8 10 10 11 11 11 10 10 10 9 9 8 8 8 8 7 7 7 7 7 7 7 7 6 6 5 5 5 5 5 5 5 5 5 5 5 5 5 5 5 5 5 5 5 5 5 5 5 4 4 4 4 4 4 5 5 5 6 6 6 5 5 5 5 5 5 5 5 5 6 6 6 7 7 7 7 7 7 7 7 7 8 8 8 8
9 10 11 12 12 11 11 10 9 9 9 8 8 8 8 7 7 7 7 7 7 7 7 7 6 5 5 5 5 5 5 5 5 5 5 5 5 5 5 5 5 5 5 5 5 5 5 5 4 4 4 4 4 4 5 5 5 6 6 6 5 5 5 5 5 6 6 6 6 6 6 7 7 7 7 7 7 7 7 7 7 8 8 8 8
Wind_Speed
97 97 99 100 101 102 104 105 106 108 109 111 112 113 114 115 115 116 116 116 117 117 118 119 120 121 122 123 124 125 126 127 128 129 130 131 131 132 132 133 133 133 133 134 134 135 135 135 135 135 135 135 134 134 134 134 134 133 133 133 132 132 131 130 128 126 128 132 133 132 132 131 129 128 127 126 124 123 122 121 120 119 118 117 117
94 95 95 96 97 98 99 99 100 101 103 105 106 107 109 110 112 113 114 115 115 116 116 117 117 118 118 119 120 121 122 123 124 124 125 126 127 128 129 129 129 130 131 131 132 132 132 132 133 133 133 133 132 132 132 132 132 132 132 132 131 131 130 130 128 125 126 130 133 134 135 135 133 132 131 130 128 127 126 125 124 123 122 121 120
90 91 92 93 93 93 94 95 95 96 97 98 99 100 102 103 105 107 109 110 112 113 114 115 115 116 116 117 117 118 119 120 120 121 122 123 123 124 124 125 125 126 127 127 128 129 129 129 130 131 131 131 130 131 131 131 131 131 131 131 130 130 129 128 127 126 125 127 130 132 134 136 136 136 135 134 132 131 130 129 128 127 126 125 124
86 87 88 89 89 90 90 91 91 92 93 94 94 95 95 96 98 100 101 103 105 107 109 110 112 113 114 114 115 116 116 117 118 119 119 120 120 120 120 121 121 122 122 123 124 124 125 126 127 127 128 128 128 129 129 129 129 129 129 130 129 128 128 127 126 125 125 125 127 129 132 134 136 137 138 137 136 135 134 133 132 131 130 129 128
83 83 84 84 85 85 86 87 88 89 89 90 91 91 91 92 92 94 95 96 98 99 101 103 105 107 109 110 111 112 113 114 115 116 116 117 117 117 117 117 118 118 118 119 119 120 121 121 122 123 124 125 125 126 127 127 127 127 127 128 128 127 126 126 125 124 124 124 125 128 130 131 133 135 137 138 139 139 138 137 136 135 135 134 133
79 79 79 80 80 81 82 83 84 85 86 87 88 88 89 89 90 90 91 92 92 94 95 96 98 100 102 104 106 108 109 111 112 112 113 113 114 114 114 114 114 115 115 115 115 116 116 117 118 120 121 121 122 123 124 124 124 125 125 125 125 125 124 124 124 123 123 123 123 125 127 129 131 132 135 137 138 139 140 140 139 139 138 138 137
76 76 77 77 77 78 78 79 80 81 82 83 84 85 85 86 87 88 88 89 89 90 91 92 93 95 96 98 100 101 104 106 108 109 110 110 110 110 110 110 110 111 111 111 112 112 113 114 115 116 117 118 119 120 121 121 121 121 122 122 123 123 122 122 122 122 121 121 121 123 125 127 128 130 132 135 137 138 139 141 142 142 142 141 141
74 75 75 75 76 76 76 77 77 78 78 79 80 80 81 82 83 84 85 86 87 88 89 90 91 92 92 94 95 96 98 100 102 104 105 106 107 107 107 107 106 106 107 107 108 109 110 111 112 113 114 115 116 117 117 118 118 118 119 120 120 120 120 120 120 120 120 119 119 121 122 124 126 127 130 133 135 136 138 140 141 143 144 145 144
73 72 73 73 74 74 75 75 75 76 76 76 77 77 78 79 79 81 82 83 84 85 86 87 88 89 90 91 92 93 94 96 97 99 100 101 103 103 103 103 103 103 103 104 105 106 107 108 109 110 111 111 112 113 114 114 115 115 116 117 117 117 117 118 118 118 118 117 117 118 120 121 123 125 128 130 132 134 136 139 140 141 144 146 147
71 71 70 71 71 72 72 73 73 74 74 74 74 75 75 76 76 77 78 79 81 82 83 84 85 86 87 88 89 91 92 93 94 95 96 97 98 98 97 98 99 99 100 101 102 104 105 106 106 107 107 108 108 109 110 111 111 112 113 114 114 114 115 115 116 116 115 115 115 116 117 118 120 122 125 127 130 132 134 136 137 139 142 144 146
69 69 69 69 69 69 69 70 71 71 71 72 72 73 73 73 74 74 75 76 78 79 80 81 82 83 84 85 86 88 89 91 91 92 93 94 94 93 92 93 94 94 95 97 99 101 102 103 103 104 104 105 105 105 106 107 107 108 109 111 112 112 113 113 113 113 113 113 112 113 114 114 116 119 121 124 127 129 131 133 135 137 139 142 143
68 68 68 67 67 67 67 68 68 69 69 69 70 70 71 71 71 72 72 74 75 76 77 77 78 79 80 81 83 85 87 88 88 88 90 91 91 89 88 88 89 90 92 94 96 97 99 100 100 101 101 102 103 103 103 104 104 105 105 106 108 109 110 110 110 111 111 110 109 110 110 111 113 115 117 120 124 127 128 130 132 134 137 139 141
67 67 67 66 66 66 66 66 67 67 67 68 68 68 68 69 69 69 70 71 72 73 74 74 75 76 76 77 79 81 83 84 85 85 86 87 87 85 83 82 83 86 89 91 93 94 95 96 97 98 99 100 100 100 101 101 101 101 102 102 103 105 106 107 107 108 108 108 107 107 108 109 110 112 114 117 120 123 125 126 129 131 134 136 138
66 65 65 65 65 65 65 65 65 65 65 65 66 66 66 66 66 67 68 69 69 70 71 71 72 73 73 74 75 77 79 80 80 81 82 82 82 81 79 78 78 81 85 87 89 90 91 93 94 95 96 98 98 98 99 99 99 99 99 99 99 100 102 103 103 104 105 105 104 104 106 107 108 109 111 114 116 118 120 123 126 129 131 133 135
65 64 64 63 63 63 63 63 63 63 63 63 63 63 64 64 64 65 65 66 67 68 68 69 69 70 70 71 72 74 76 76 75 76 77 77 77 76 74 74 75 78 81 83 85 86 88 90 91 92 94 95 96 97 98 98 98 97 96 96 96 96 97 97 98 100 101 101 102 102 104 106 107 108 110 111 112 114 116 119 123 126 128 130 132
64 63 63 62 62 61 61 61 62 62 62 62 61 61 61 61 62 62 63 65 65 66 66 67 67 68 68 69 69 70 72 72 71 71 72 72 71 70 69 70 72 75 77 79 81 82 84 86 88 89 91 92 94 96 97 97 96 95 95 94 93 93 92 93 94 96 97 97 98 99 101 104 106 107 108 109 110 110 113 116 118 121 123 125 127
65 63 62 61 61 60 59 59 60 60 60 60 60 59 59 59 60 60 61 62 64 64 64 65 65 66 66 67 67 68 69 69 68 68 68 68 66 66 66 67 69 72 75 77 78 79 81 83 84 86 87 89 92 94 95 94 93 92 92 91 91 90 90 90 91 92 93 94 95 96 97 100 103 104 106 107 108 109 111 112 113 115 118 120 122
65 63 62 61 60 59 58 58 58 58 58 58 58 57 57 58 59 59 60 61 62 62 63 63 64 64 65 65 64 65 66 67 66 65 65 64 63 63 64 65 67 70 72 74 75 76 78 79 81 82 84 86 89 91 92 91 90 88 88 88 88 88 87 87 88 89 90 91 91 92 93 95 98 100 101 103 105 107 109 108 109 112 116 117 117
65 63 62 61 60 58 57 57 57 57 56 56 56 56 55 56 57 58 58 59 60 61 61 62 63 64 63 63 62 61 62 63 63 62 62 62 61 62 63 64 66 68 69 71 72 74 75 76 77 79 80 82 85 87 88 88 86 85 84 84 83 83 83 85 87 87 88 88 87 88 89 91 94 95 97 99 101 104 105 104 106 110 113 113 113
65 63 62 61 60 58 57 57 56 56 56 56 56 55 54 55 56 57 58 59 59 60 60 61 62 63 62 61 60 59 59 60 60 60 60 60 60 60 60 62 64 65 66 68 70 71 72 72 73 74 76 78 80 82 84 83 82 81 79 78 78 79 82 85 85 85 85 86 86 87 87 88 90 91 92 95 98 101 101 101 102 107 109 109 109
65 63 62 61 59 58 57 56 56 56 55 55 56 55 54 54 55 56 57 58 59 59 60 60 61 62 61 60 58 57 57 57 57 58 58 58 59 58 58 59 61 62 64 67 68 68 68 68 69 70 72 74 75 77 78 79 78 76 75 75 77 80 82 83 82 83 84 85 86 86 85 85 87 88 89 91 95 97 98 98 99 102 104 104 105
65 63 61 60 59 58 57 56 55 55 55 55 55 55 54 54 54 54 55 56 57 58 58 59 60 60 60 58 56 56 55 55 55 55 56 57 57 56 56 56 57 58 61 64 64 64 65 66 67 68 69 69 70 72 73 75 75 73 73 75 77 79 79 79 80 81 82 82 83 83 83 83 84 84 86 87 90 93 96 96 96 98 99 99 101
65 63 61 60 59 58 57 56 55 55 54 54 54 54 53 53 53 53 53 55 56 57 58 58 59 59 59 57 55 54 54 54 53 53 54 56 56 54 53 53 53 54 58 60 60 61 62 63 64 65 65 65 66 68 70 71 72 71 72 73 73 73 74 75 77 78 78 79 79 80 81 82 82 82 82 84 86 88 91 93 93 94 95 96 98
66 64 62 60 59 58 57 56 55 55 54 54 53 53 52 52 52 52 52 53 54 55 57 58 58 58 57 56 54 53 53 53 52 51 52 54 55 53 52 51 51 51 54 56 57 58 60 60 61 62 62 63 63 65 66 67 68 68 68 68 68 69 71 72 73 74 75 77 77 78 79 80 80 80 79 80 82 84 86 88 89 90 91 93 95
66 64 63 61 59 58 58 57 56 55 54 54 53 52 51 51 51 51 51 51 52 53 56 57 58 58 57 54 52 52 51 51 50 50 50 53 53 52 51 50 49 49 51 54 55 56 57 57 58 58 59 60 61 61 62 63 64 64 65 65 66 67 68 68 69 71 73 74 76 77 78 79 78 77 76 77 78 80 82 83 85 86 87 89 92
67 65 63 62 60 59 58 58 57 56 55 54 54 52 51 50 50 50 50 50 50 51 53 55 56 57 56 53 50 49 49 48 48 48 49 50 52 51 50 49 48 48 50 51 52 53 54 53 54 55 57 58 58 58 59 59 60 61 62 63 63 64 65 66 67 69 71 73 75 76 76 76 75 73 74 74 76 77 79 81 82 83 84 85 87
67 65 64 62 60 59 59 58 57 57 56 55 54 53 51 49 48 47 47 47 48 49 51 53 55 56 56 53 50 48 47 46 46 46 47 48 49 49 48 47 47 48 49 49 49 49 50 50 51 53 54 55 55 55 56 57 58 59 60 60 61 62 63 64 66 68 69 70 72 73 74 73 72 71 72 74 74 75 77 78 80 81 81 82 83
68 66 64 63 61 60 59 58 57 57 56 56 55 53 51 49 47 46 45 45 45 46 48 50 52 55 55 53 50 48 46 44 43 44 45 46 47 48 47 46 47 47 47 47 46 46 47 48 49 51 51 51 51 52 54 55 56 57 57 59 60 61 61 63 64 65 66 67 68 70 71 70 70 70 71 72 73 73 74 75 77 78 79 79 79
69 67 65 64 62 61 60 59 58 57 56 56 55 54 52 50 47 45 44 44 44 44 45 47 50 53 55 54 50 47 44 41 40 40 42 44 46 47 47 47 47 46 45 44 44 44 45 46 46 47 48 49 49 50 51 53 54 54 55 57 58 59 59 60 61 62 63 64 66 67 68 68 68 68 69 70 70 70 71 72 74 75 75 76 76
70 68 66 64 63 61 60 59 58 57 56 56 55 55 54 51 48 45 43 42 42 43 43 44 46 49 53 55 54 49 45 41 39 37 37 40 42 44 46 48 47 45 42 41 41 42 43 43 43 44 46 47 47 48 49 51 52 52 53 54 55 56 57 58 59 60 61 62 63 65 65 65 65 66 66 67 68 68 68 69 70 71 72 72 74
70 69 67 65 63 62 61 60 59 58 57 56 55 54 54 54 52 48 44 41 39 40 41 42 42 44 47 51 54 52 48 43 40 38 36 37 39 41 44 46 47 45 41 38 38 40 41 41 41 42 43 45 45 46 47 49 50 51 51 52 52 53 54 56 57 58 59 60 61 62 62 62 63 63 64 64 65 66 66 67 67 68 69 70 72
70 69 67 66 64 62 60 59 58 57 56 56 55 54 53 54 53 52 49 44 39 38 39 40 41 41 42 45 48 51 49 46 42 38 36 36 37 39 41 43 45 44 41 37 36 37 39 39 40 41 42 43 44 44 45 46 48 48 48 49 50 51 53 54 55 56 56 58 59 59 59 59 60 61 61 62 63 63 64 65 65 66 67 68 70
70 69 67 66 64 62 60 59 58 57 56 55 55 53 52 52 52 52 51 49 44 40 38 39 40 40 39 40 43 46 47 46 44 41 38 35 35 37 39 41 42 41 39 37 35 35 37 38 39 40 41 42 42 42 43 44 45 45 46 47 48 50 51 52 53 54 54 55 56 56 56 57 58 58 59 60 60 61 62 63 64 65 66 67 68
70 68 67 65 64 62 60 59 57 57 56 55 54 53 52 51 51 51 51 51 49 45 41 40 40 41 40 39 39 42 43 43 42 41 40 37 36 36 37 39 40 39 38 36 34 34 35 36 37 39 40 40 40 40 41 41 42 43 44 46 47 48 49 50 51 52 52 53 53 53 54 55 56 56 57 58 58 59 60 61 62 63 64 65 67
70 68 67 65 63 62 60 58 57 56 56 55 54 53 52 51 50 50 49 49 49 48 46 43 41 41 41 39 39 40 41 41 39 38 37 37 37 37 36 37 37 37 36 35 34 34 33 34 36 37 38 38 38 39 39 39 40 41 43 44 45 46 47 48 49 50 50 50 51 51 52 53 54 55 55 55 56 57 59 60 61 62 63 64 65
70 68 67 65 63 61 60 58 57 56 55 54 54 53 52 51 50 49 48 48 47 47 46 45 43 42 41 40 38 38 39 40 40 37 35 34 34 36 37 36 35 35 35 34 34 33 33 33 34 35 36 36 36 37 37 38 39 40 41 42 43 44 45 46 47 48 48 48 48 49 49 51 52 52 53 53 55 56 57 58 59 60 61 62 63
70 68 66 65 63 62 60 59 58 57 56 55 54 53 52 51 50 49 48 47 47 46 45 44 43 42 42 40 38 36 36 38 39 38 35 33 32 33 35 36 34 33 33 33 33 33 32 32 32 34 34 34 34 35 35 36 38 39 40 40 41 42 43 44 45 46 46 46 46 47 47 49 50 50 51 52 53 55 56 57 58 59 59 60 60
70 68 66 64 63 62 60 59 58 57 56 55 55 54 53 51 50 49 48 47 46 45 44 43 42 42 41 40 38 35 34 35 37 37 35 33 31 31 33 34 33 31 31 32 32 32 32 31 31 32 32 32 32 33 34 35 36 37 38 39 39 40 41 42 43 44 44 45 45 45 46 47 48 49 50 51 52 53 54 55 56 56 57 57 58
71 68 66 64 63 62 60 59 58 57 56 56 55 54 53 52 51 49 48 47 46 45 43 42 41 40 40 39 38 36 34 33 34 36 35 33 31 30 31 32 33 31 29 30 32 32 31 31 30 31 31 31 31 31 32 33 35 36 36 37 38 39 40 41 42 42 43 43 43 44 45 46 47 48 49 50 50 51 52 53 54 54 55 55 56
71 69 66 65 63 61 60 59 58 57 56 55 54 54 53 52 50 49 48 47 45 44 43 41 40 39 38 38 38 37 35 33 32 33 34 33 32 30 29 30 31 30 28 28 30 31 31 30 29 30 30 29 29 30 31 32 33 34 35 36 36 37 38 39 40 41 41 42 42 43 45 46 46 47 47 48 49 50 50 51 52 52 53 53 54
71 69 66 65 63 62 60 59 58 57 56 55 54 53 52 51 50 49 47 46 45 44 43 41 40 38 37 37 36 36 35 34 32 31 32 32 31 30 29 29 29 29 28 26 28 30 31 29 29 29 29 28 28 28 29 31 32 33 34 34 35 36 37 38 38 39 39 40 41 42 44 45 45 45 46 47 48 48 49 49 50 51 51 53 54
71 69 67 65 63 62 61 60 59 58 57 55 54 53 52 51 50 49 47 46 45 44 43 41 39 38 36 36 35 35 35 34 33 31 31 31 30 30 29 28 28 28 27 26 26 28 30 29 28 27 28 27 27 27 28 29 30 31 32 33 33 34 35 36 37 38 38 39 40 42 43 44 44 44 45 45 46 46 47 48 48 49 50 52 53
71 69 67 65 64 63 62 61 59 58 57 55 54 53 51 50 49 48 47 46 44 43 42 40 39 37 36 35 34 34 34 33 33 31 30 30 30 29 29 28 27 26 26 25 24 26 28 28 27 26 26 26 26 26 27 28 29 30 31 31 32 32 33 34 35 37 38 39 40 41 41 42 42 43 43 44 44 45 46 46 47 48 49 50 51
71 69 67 66 64 63 62 61 60 58 57 55 54 53 51 50 49 48 47 46 45 43 42 40 39 37 36 35 34 33 33 33 32 31 30 30 29 29 28 27 26 25 25 25 24 24 26 27 26 25 25 25 25 25 26 27 28 28 29 30 31 31 32 33 34 35 37 38 39 39 40 40 40 41 42 42 43 44 44 45 46 47 48 48 49
70 69 67 66 65 64 63 62 60 58 57 55 54 53 51 50 49 48 47 46 45 44 42 40 39 37 36 35 34 34 33 33 32 31 30 29 29 29 28 27 26 25 24 24 23 23 24 25 25 24 24 24 24 24 25 25 26 27 28 29 29 30 31 32 33 34 35 37 37 38 37 38 38 39 40 41 42 43 43 44 45 45 46 46 46
70 69 67 66 65 64 63 62 60 59 57 56 54 53 52 50 49 47 46 45 44 43 42 41 39 37 36 36 35 34 33 33 32 32 31 30 29 28 28 27 26 24 24 23 23 22 22 23 23 23 23 23 23 23 24 24 25 26 27 28 29 29 30 31 32 33 35 36 36 36 36 36 37 38 39 40 40 42 42 43 44 44 44 44 44
71 69 67 66 65 64 63 62 60 59 57 56 54 53 52 50 49 47 46 45 44 43 43 41 40 38 37 36 35 35 34 33 32 32 31 30 29 28 28 27 26 24 23 23 23 22 22 22 22 22 22 22 22 22 23 24 24 24 25 27 28 28 29 30 31 32 34 35 35 35 35 35 36 37 38 38 39 41 41 42 43 43 43 43 43
71 69 68 66 66 65 64 62 61 59 58 56 55 54 52 51 49 48 47 46 45 44 44 43 42 40 38 36 36 36 35 35 33 32 31 30 29 28 27 27 26 24 22 22 22 22 21 21 21 21 20 21 21 21 22 22 23 23 24 26 27 28 28 29 31 32 33 34 34 34 34 34 35 36 37 38 39 40 41 41 42 42 42 42 43
71 70 68 67 66 66 65 63 61 59 58 57 55 54 53 52 51 50 49 48 47 46 45 45 44 43 41 39 37 36 36 35 34 33 31 30 29 28 27 27 25 24 22 21 21 21 21 20 20 19 19 20 20 21 21 22 22 23 23 25 26 27 28 29 30 32 33 33 33 33 33 34 35 36 36 37 38 39 40 41 41 41 42 42 43
71 70 68 67 67 66 65 64 62 60 58 57 56 55 54 53 52 51 51 50 49 48 47 47 46 45 43 41 39 37 36 35 35 33 32 30 29 28 27 26 25 24 22 21 20 20 20 20 19 19 19 19 19 20 20 21 21 21 22 24 25 26 27 28 30 31 32 32 33 33 33 34 34 35 36 37 38 39 39 40 41 41 42 42 43
70 69 68 67 67 66 66 65 63 61 59 58 57 56 55 55 54 53 53 52 52 51 49 48 47 46 45 43 41 38 36 35 34 33 31 30 28 27 26 25 24 23 22 20 20 19 19 19 18 18 18 18 18 19 20 20 20 21 21 23 24 25 27 28 29 30 31 32 32 32 33 33 34 35 36 37 38 39 39 40 41 41 42 42 43
Wind_Direction
281 280 279 278 277 276 275 274 274 273 273 273 273 273 273 273 272 272 271 270 270 269 268 268 267 267 267 266 266 266 265 265 265 265 265 264 264 264 264 263 263 263 263 263 262 262 262 262 262 261 261 261 260 260 259 259 258 258 257 256 255 254 253 251 249 246 246 247 247 246 246 245 245 244 244 243 243 243 242 242 242 241 241 240 239
284 283 282 281 279 279 278 276 275 274 274 273 272 272 271 271 271 271 271 271 271 270 270 269 269 268 268 267 267 266 266 265 265 265 264 264 264 263 263 263 263 262 262 262 262 262 262 261 261 261 261 260 260 260 259 259 258 258 257 256 255 254 253 252 250 247 245 246 246 246 246 245 245 244 244 243 242 242 242 241 241 241 241 240 239
286 285 284 283 282 281 280 279 278 277 276 275 273 272 272 271 270 270 270 270 270 270 270 270 269 269 268 268 267 267 266 266 266 265 265 264 264 263 263 263 262 262 262 261 261 261 261 261 261 260 260 260 260 259 259 258 258 257 257 256 255 254 253 252 250 248 246 245 245 245 245 245 245 244 243 243 242 241 241 241 241 240 240 240 239
287 286 285 284 284 283 283 282 281 280 279 277 276 275 274 273 271 271 270 269 269 268 268 269 269 269 268 268 268 267 267 266 266 266 265 265 264 264 264 263 263 262 262 261 261 261 261 260 260 260 260 260 259 259 258 258 257 257 256 256 255 254 253 252 251 249 247 246 245 245 244 244 244 244 243 243 242 241 241 240 240 240 240 239 239
289 287 287 286 285 284 284 283 282 281 280 279 278 277 276 275 274 272 271 270 270 269 268 268 268 268 268 268 268 268 267 267 267 266 266 265 265 265 264 264 263 263 262 262 261 261 261 260 260 260 259 259 259 258 258 258 257 256 256 255 255 254 253 252 251 249 248 246 245 245 244 243 243 243 243 243 242 241 241 240 239 239 239 239 239
290 289 288 287 286 285 284 283 282 281 281 280 279 279 278 277 276 275 274 273 272 271 270 269 268 267 267 267 267 267 267 267 267 267 266 266 266 265 265 264 264 264 263 263 262 262 261 261 260 260 259 259 258 258 257 257 257 256 256 255 255 254 253 252 251 250 248 247 246 245 244 243 243 242 242 242 242 241 241 240 240 239 239 239 238
293 292 291 289 288 286 285 283 282 282 281 281 280 280 279 278 278 277 276 275 274 273 272 271 270 269 268 267 266 266 266 266 266 266 266 266 266 265 265 265 264 264 264 263 263 262 262 261 260 260 259 259 258 258 257 257 256 256 256 255 255 254 253 252 251 250 249 247 246 245 244 244 243 242 242 242 241 241 241 240 240 239 238 238 238
296 295 293 292 290 289 287 286 284 283 282 281 281 280 279 278 278 277 276 276 275 274 273 272 272 271 270 269 268 267 266 265 265 265 265 265 265 265 265 265 265 265 264 264 263 263 262 262 261 260 259 259 258 258 257 257 256 256 255 255 255 254 253 253 252 250 249 248 246 245 244 243 243 242 242 241 241 240 240 240 239 239 239 238 238
298 297 295 294 292 291 290 288 287 286 284 283 282 281 280 279 278 277 276 276 275 274 273 273 272 272 271 270 269 268 267 267 266 265 265 265 265 265 265 265 265 265 265 264 264 263 263 262 261 260 260 259 258 258 257 257 256 256 255 255 254 254 253 252 252 251 250 248 247 246 244 243 243 242 242 242 241 240 240 240 239 239 239 238 238
300 299 297 296 294 293 292 291 289 288 287 285 284 283 281 280 279 278 277 276 275 274 274 273 272 272 271 270 270 269 268 268 267 266 266 265 265 265 264 264 264 264 264 264 264 263 263 262 262 261 261 260 259 258 257 257 256 256 255 255 254 254 253 252 251 251 250 249 248 246 245 244 243 242 242 242 241 241 240 240 239 239 239 239 238
303 302 300 298 297 295 294 293 292 290 289 288 286 285 283 282 281 280 279 277 276 275 274 273 273 272 271 271 270 269 269 268 267 267 267 266 266 265 265 265 265 264 263 263 262 262 262 262 261 261 261 261 260 259 258 257 256 255 254 254 254 253 253 252 251 251 250 249 248 247 246 244 243 243 242 242 241 241 240 240 239 239 238 238 238
306 304 303 301 300 298 296 295 293 292 291 289 288 287 285 284 283 282 280 279 277 276 275 274 273 272 272 271 270 270 269 269 268 268 267 267 266 266 265 265 265 265 264 263 262 261 261 261 261 261 260 260 260 259 258 258 257 255 254 253 253 252 252 251 251 250 250 249 248 247 246 245 244 243 242 241 241 241 240 240 240 239 239 238 238
309 307 305 304 302 301 299 297 295 294 292 291 290 288 287 286 285 283 282 280 279 278 277 276 274 273 272 272 271 270 269 269 269 268 268 268 268 267 266 265 264 264 263 263 262 261 261 260 260 260 260 259 259 258 258 257 256 256 254 253 252 252 251 251 250 250 249 249 248 247 246 246 244 243 242 241 241 241 240 240 240 239 239 239 238
311 309 308 306 305 303 301 299 297 296 294 293 291 290 289 288 286 285 283 282 281 279 278 277 276 275 274 273 272 271 270 270 269 269 269 269 269 268 267 266 264 263 262 262 261 261 260 260 259 259 259 259 259 258 258 257 256 256 255 253 253 252 251 250 250 249 249 248 248 247 247 246 245 244 243 242 241 241 240 240 239 239 239 239 239
313 312 310 308 306 304 303 301 299 298 296 294 293 292 291 290 288 287 285 284 283 282 280 279 278 277 276 275 274 273 272 271 271 270 270 270 269 269 268 267 265 263 262 261 260 260 259 259 258 258 258 258 258 257 257 257 256 255 255 254 253 252 251 251 250 249 248 247 247 246 246 246 245 244 243 242 241 240 240 239 239 239 238 238 239
316 314 312 310 308 306 305 303 301 300 298 297 295 294 293 292 290 289 287 286 285 284 283 282 281 279 278 277 276 275 274 274 273 272 272 271 270 270 269 267 265 263 262 261 260 259 258 258 257 257 257 257 257 256 256 256 255 255 255 254 254 253 252 251 250 249 248 247 246 245 244 244 244 244 243 243 242 241 240 239 239 239 239 238 238
318 317 315 312 310 308 307 305 303 301 300 298 297 296 295 294 292 291 289 288 287 286 285 284 283 281 280 279 278 277 276 276 275 274 273 273 272 270 268 266 264 262 261 260 259 258 258 257 257 257 256 256 256 256 256 256 255 255 255 255 255 254 252 252 251 250 249 248 246 245 243 243 243 243 243 243 242 242 241 240 240 240 239 239 238
320 319 317 315 313 311 309 307 305 303 301 300 299 298 297 296 294 293 292 290 289 288 287 285 284 282 281 280 279 278 278 277 277 276 275 274 272 270 268 266 264 262 260 260 259 258 258 257 256 256 256 255 256 256 257 257 256 255 255 255 255 255 254 254 253 252 250 249 248 246 245 244 243 243 243 243 242 242 241 240 240 240 240 239 238
322 321 319 317 315 314 311 309 307 305 304 302 301 300 299 298 296 295 293 292 290 289 288 287 285 284 282 281 280 279 279 278 277 276 275 274 272 270 268 266 265 263 262 261 260 259 258 257 256 256 256 256 256 257 257 257 257 257 256 256 256 256 256 255 254 252 252 250 249 248 246 245 244 243 243 243 243 242 241 240 239 240 240 239 238
324 323 321 319 317 316 314 312 310 308 307 305 304 303 302 300 298 297 296 294 292 291 290 288 287 286 285 284 283 282 281 280 279 277 275 274 271 269 268 266 266 265 264 263 261 259 258 258 257 257 256 256 256 257 257 258 258 258 257 257 257 256 255 254 253 252 252 251 250 248 246 245 244 243 242 242 242 242 241 240 239 239 239 239 238
326 325 323 321 319 318 316 314 312 311 310 308 307 306 304 303 301 299 297 295 294 293 291 290 288 287 286 286 285 284 283 281 280 278 276 274 272 270 268 267 266 266 265 263 262 262 261 260 258 257 256 256 256 257 257 257 257 257 256 255 254 252 252 251 251 251 250 249 249 248 246 245 244 243 242 241 241 242 242 240 239 239 239 238 237
327 327 325 322 321 319 318 316 314 313 311 310 309 308 306 304 302 300 298 297 295 294 292 291 289 289 288 288 287 286 285 283 281 280 278 276 273 271 269 268 267 266 265 264 264 263 262 261 260 258 257 256 256 256 256 256 256 255 253 252 251 250 250 250 250 250 250 249 249 249 248 246 245 244 243 242 242 242 242 241 240 239 239 238 237
329 328 326 324 323 321 319 318 316 315 313 312 310 309 308 306 304 302 300 299 297 296 294 293 291 290 290 290 289 288 286 284 283 282 280 278 275 273 272 270 268 267 266 266 265 263 262 261 260 259 258 256 256 255 255 255 255 254 253 252 252 252 252 251 251 251 251 250 250 249 249 248 246 244 243 243 243 242 242 241 240 240 239 239 238
331 330 328 326 324 323 321 320 318 316 315 313 312 311 310 308 306 305 303 301 299 297 296 294 293 292 291 291 290 289 287 286 285 283 282 280 278 276 275 272 270 269 268 267 265 263 262 261 260 260 259 257 256 255 255 255 255 254 254 253 252 252 251 250 250 250 250 249 249 249 248 248 246 245 243 242 242 243 243 242 241 240 239 239 239
332 331 329 327 326 325 323 321 320 318 317 315 314 313 312 311 309 307 305 303 301 299 297 296 294 293 293 292 291 290 289 287 286 285 284 282 280 279 277 275 273 271 269 267 265 264 262 261 260 260 259 258 257 256 255 254 254 254 253 252 251 250 249 249 248 248 248 248 248 247 247 246 246 245 244 242 242 242 242 243 242 241 239 239 238
333 332 330 329 328 327 325 323 322 320 319 318 317 316 314 313 311 309 306 304 302 300 298 297 295 294 294 293 292 290 289 288 287 286 285 284 283 281 279 277 275 272 269 267 266 265 264 263 262 260 259 257 257 256 255 254 253 253 252 251 250 249 248 247 247 246 246 246 246 246 246 246 245 245 244 243 241 240 240 240 241 241 240 239 238
334 333 332 330 330 328 327 325 324 322 321 320 318 317 315 314 312 310 308 305 304 302 300 298 297 297 296 295 294 293 291 290 290 288 286 285 283 282 280 278 275 272 270 268 267 266 265 264 263 260 259 257 257 256 255 253 252 251 251 250 249 248 246 245 245 245 245 245 245 246 246 246 245 244 243 242 241 240 239 239 239 239 239 239 238
335 334 333 332 331 330 328 327 325 324 323 321 319 318 317 315 314 312 310 308 306 304 302 300 299 298 297 297 296 295 294 293 292 291 289 287 285 283 281 278 275 273 271 270 269 268 266 264 263 261 260 258 257 255 254 253 252 251 250 249 249 247 246 245 244 244 244 244 245 245 245 245 244 243 242 242 241 240 239 238 238 238 238 238 238
336 335 334 333 333 331 330 329 327 326 324 322 321 320 319 318 317 315 313 311 309 306 304 302 300 299 298 298 297 296 295 294 292 290 289 287 286 284 282 279 276 274 273 272 271 269 267 264 263 262 261 259 257 255 253 252 251 250 249 249 248 248 246 245 245 244 244 244 244 244 244 244 243 242 241 241 241 240 239 238 238 237 237 237 236
337 336 335 334 334 333 332 330 329 327 326 324 323 322 321 319 318 317 316 314 311 309 306 304 303 302 302 301 301 300 300 298 295 292 289 286 285 284 282 280 278 276 275 274 272 270 268 266 264 262 260 258 256 254 253 252 251 250 249 248 248 248 247 246 245 244 243 243 243 243 243 243 243 242 241 240 240 240 239 238 237 237 237 236 235
338 337 336 336 335 335 333 332 330 329 327 326 325 324 323 322 320 319 318 316 314 311 308 305 303 302 301 300 301 301 302 301 298 296 292 288 285 283 281 281 280 279 278 275 273 271 269 267 265 262 259 257 255 254 252 251 251 250 249 249 248 247 247 246 245 244 243 243 243 243 242 242 242 241 241 240 239 239 238 238 237 236 236 235 234
339 338 337 337 336 336 334 333 331 330 329 328 327 326 325 324 322 321 320 319 317 314 311 307 305 303 301 299 299 300 301 301 300 297 294 290 287 284 282 281 280 281 280 277 274 271 269 267 264 262 259 257 255 253 251 250 250 250 249 248 248 247 246 245 244 243 243 242 242 242 242 242 241 241 240 239 238 237 237 236 236 235 235 234 233
340 339 338 338 337 337 336 334 333 332 331 330 329 328 327 326 324 323 322 321 320 318 315 311 309 306 304 301 299 299 300 300 300 299 296 292 288 286 284 282 281 281 281 279 275 271 268 266 263 262 260 258 255 253 252 250 249 249 248 247 246 245 245 244 244 243 242 242 242 241 241 241 241 240 239 238 237 236 235 235 234 233 233 233 232
341 340 340 339 338 337 337 336 334 333 332 331 330 330 329 328 327 326 324 323 322 321 320 317 313 310 308 305 302 299 298 298 298 298 297 295 292 288 285 284 283 282 281 279 276 272 268 266 263 261 260 258 256 254 252 251 249 248 246 246 245 244 244 244 243 242 241 241 241 240 240 240 240 239 238 237 236 235 234 233 232 232 232 232 231
342 341 341 340 339 338 337 337 336 334 333 333 332 332 331 330 329 327 326 325 323 322 321 320 317 313 311 309 306 303 301 299 298 297 296 295 293 290 287 285 284 284 282 280 277 273 269 266 264 262 260 258 257 255 253 251 249 247 245 244 244 243 243 243 243 242 241 240 240 239 239 239 238 238 237 236 235 235 234 232 231 231 230 230 230
343 343 342 341 340 339 338 338 337 336 335 334 334 333 332 331 330 329 328 326 324 323 322 321 319 316 313 311 310 306 303 301 300 298 296 295 293 291 289 287 286 284 283 281 278 275 271 267 264 262 260 258 256 254 252 250 248 247 245 244 243 242 241 241 241 241 240 240 239 238 238 237 237 236 236 235 234 233 233 231 230 230 229 229 229
344 344 343 342 341 340 339 339 338 337 336 336 335 334 334 333 332 331 330 328 326 324 323 321 320 317 315 313 311 308 305 302 301 300 298 296 294 292 290 289 287 285 283 281 279 276 273 269 265 263 261 258 256 253 251 249 248 246 245 244 242 241 241 240 240 240 240 239 238 237 236 236 235 234 234 233 232 232 231 230 230 229 228 228 228
345 345 344 343 342 341 340 340 339 338 338 337 336 336 335 335 334 332 331 329 327 326 324 323 321 319 316 314 312 310 307 304 302 301 300 299 297 294 292 290 289 287 284 282 279 276 273 270 266 263 261 258 256 253 251 249 247 246 245 244 242 241 240 239 239 239 238 238 237 236 235 234 233 233 232 231 230 230 229 229 229 228 228 227 227
346 346 345 344 343 342 341 341 340 340 339 338 337 337 336 335 335 333 332 330 329 327 325 324 322 320 317 315 313 311 309 306 303 302 301 300 299 297 294 292 290 289 285 282 279 277 274 271 267 264 261 258 255 253 250 249 247 245 244 243 241 240 239 239 238 237 237 236 235 234 233 233 232 231 230 229 229 228 228 227 227 227 226 226 226
347 346 346 345 344 343 343 342 341 341 340 339 338 338 337 336 336 334 333 332 330 328 327 325 324 322 319 317 315 313 311 308 305 303 302 302 301 299 296 293 291 290 287 282 279 277 274 272 268 265 262 259 255 253 250 248 247 245 244 242 240 239 238 237 237 236 235 234 233 232 231 231 230 229 228 228 227 226 226 225 225 224 224 224 224
347 347 346 346 345 344 344 343 343 342 342 341 340 339 338 337 337 336 334 333 331 330 329 327 326 324 321 319 316 314 313 311 308 306 304 303 302 301 299 296 293 291 288 283 279 277 275 272 269 266 263 260 256 253 251 249 247 245 244 241 240 238 237 236 236 234 233 232 231 230 229 229 229 228 227 226 225 224 224 223 223 222 222 222 222
348 347 347 347 346 346 345 345 345 344 343 342 341 341 340 339 338 337 336 335 333 332 330 329 327 325 323 320 318 316 314 313 311 309 307 305 304 302 301 298 295 292 289 285 279 276 274 273 270 266 264 261 257 254 252 250 248 246 244 242 240 238 237 235 234 233 231 230 229 228 228 228 227 226 225 224 223 222 222 221 221 221 221 221 221
348 348 348 347 347 347 347 347 346 345 344 343 343 342 342 341 340 339 338 336 335 334 332 330 329 327 325 323 320 318 316 314 313 312 310 308 306 305 303 301 298 294 290 286 281 276 273 272 270 266 264 261 258 255 252 250 249 246 244 242 240 238 236 234 233 231 230 228 228 227 226 225 224 224 223 222 221 220 220 219 219 219 219 220 220
349 349 349 348 348 348 348 348 347 346 345 344 344 344 344 343 342 341 340 338 337 336 334 333 331 330 328 326 323 321 319 317 316 315 313 311 309 307 305 303 300 296 292 288 283 277 273 272 270 266 263 261 258 255 253 250 249 247 244 242 240 237 235 233 232 230 228 227 226 225 224 223 222 221 220 220 219 218 217 217 217 217 218 219 219
350 349 349 349 349 349 349 348 347 346 346 346 345 345 345 345 344 344 342 341 339 338 337 335 334 333 331 329 327 324 322 320 318 317 316 314 312 310 307 305 303 299 294 289 284 278 273 271 269 266 263 260 257 255 253 251 249 247 245 242 239 237 235 233 231 229 227 226 225 224 222 221 219 219 218 217 216 216 215 215 215 216 216 217 217
350 350 350 350 350 350 350 349 348 347 347 347 347 346 346 346 346 345 344 344 342 341 339 338 337 336 335 332 329 327 325 323 321 320 319 317 315 312 309 307 305 302 297 291 286 280 275 271 268 265 262 259 256 254 252 250 248 246 244 241 238 236 234 232 230 228 226 225 224 222 220 218 217 217 216 215 214 214 213 213 213 214 214 214 214
350 350 351 351 351 351 350 350 349 348 348 348 348 347 347 347 347 347 347 347 346 344 343 341 340 339 338 335 332 329 327 325 324 323 321 320 317 314 311 309 307 304 299 293 287 282 276 271 268 264 261 258 256 253 250 249 247 245 243 240 237 235 232 231 228 226 225 223 222 219 217 215 215 215 214 214 213 212 212 211 212 212 212 212 212
351 351 351 351 352 351 351 350 350 350 349 349 348 348 348 348 349 349 350 350 349 348 346 344 343 342 341 339 336 332 329 328 327 326 324 322 320 317 314 310 308 306 301 295 289 283 279 273 268 264 260 257 254 251 249 246 245 243 241 239 236 233 231 229 227 225 223 222 219 217 214 213 213 213 213 212 212 211 211 210 210 210 209 209 209
351 350 351 351 352 351 351 351 351 351 350 350 350 349 349 350 351 351 351 352 352 350 349 347 345 344 343 341 339 335 332 330 329 328 327 325 322 319 316 312 310 307 303 297 291 285 281 276 270 265 260 256 252 250 247 244 242 240 239 237 234 232 229 227 225 223 222 220 217 214 212 211 211 212 211 211 211 210 209 209 208 208 207 208 208
351 350 351 352 352 352 351 351 351 351 351 351 351 351 351 351 352 353 353 353 353 352 351 349 347 345 343 342 341 338 334 332 330 330 329 327 324 321 317 314 311 309 305 299 293 288 282 278 273 267 261 256 252 248 245 242 239 237 236 234 232 230 228 225 223 221 219 217 214 212 210 209 210 210 211 210 210 209 208 207 207 206 206 206 206
351 350 351 352 352 351 351 351 351 351 352 352 353 352 352 352 353 354 354 354 353 353 352 350 348 345 344 342 341 339 337 334 333 332 331 329 326 323 319 316 313 310 307 302 296 290 285 280 275 269 263 256 252 248 244 240 236 234 233 232 230 228 226 224 221 219 217 215 212 210 208 208 208 209 210 210 209 208 207 206 205 205 205 206 206